Regional Weather Roundup
Issued by NWS Kansas City/Pleasant Hill, MO

Home | Current Version | Previous Version | Graphics & Text | Print | Product List | Glossary Off
Versions: 1 2 3 4 5 6 7 8 9 10 11 12 13 14 15 16 17 18 19 20 21 22 23 24 25 26 27 28 29 30 31 32 33 34 35 36 37 38 39 40 41 42 43 44 45 46 47 48 49 50

000
ASUS43 KEAX 300110
RWREAX

WEATHER ROUNDUP FOR EASTERN KANSAS AND NORTHWEST MISSOURI
NATIONAL WEATHER SERVICE KANSAS CITY/PLEASANT HILL MO
800 PM CDT WED JUL 29 2015

KSZ040-057-103>105-MOZ028-029-037-043-300200-
...KANSAS CITY METROPOLITAN AREA...

CITY           SKY/WX    TMP DP  RH WIND       PRES   REMARKS
K.C. INTL      PTCLDY    79  69  71 N3        30.14S
K.C. DOWNTOWN  CLEAR     82  66  58 N6        30.13R
LEES SUMMIT    PTCLDY    80  65  59 N7        30.15R
OLATHE - IXD   PTCLDY    78  68  71 N8        30.15R
OLATHE - OJC   CLEAR     81  65  58 N7        30.14R
LAWRENCE       PTCLDY    80  69  69 CALM      30.14R

$$

MOZ001>008-011>017-020>025-030>033-038>040-044>046-053-054-300200-
...NORTHERN AND CENTRAL MISSOURI...

CITY           SKY/WX    TMP DP  RH WIND       PRES   REMARKS
ST. JOSEPH     PTCLDY    80  67  64 CALM      30.13F
MOSBY          CLEAR     81  63  54 CALM      30.13S
WARRENSBURG    CLEAR     77  66  69 CALM      30.13R
WHITEMAN AFB   CLEAR     78  66  65 NE7       30.12R
CLINTON          N/A     81  66  61 NE3       30.12R
SEDALIA        CLEAR     80  64  58 NE5       30.14R
WARSAW         NOT AVBL
CHILLICOTHE      N/A     78  70  76 CALM      30.14R
KIRKSVILLE     CLEAR     76  66  71 W3        30.13R

$$

MOZ041-047>049-056>058-063>065-088>090-097-300200-
...EASTERN AND SOUTHERN MISSOURI...

CITY           SKY/WX    TMP DP  RH WIND       PRES   REMARKS
ST. LOUIS INTL NOT AVBL
SPIRIT OF STL  CLEAR     82  65  56 N6        30.06R
COLUMBIA       CLEAR     78  64  61 N8        30.12R
JEFFERSON CITY CLEAR     83  64  52 N5        30.09R
ROLLA          CLEAR     78  64  61 N5        30.10R
OSAGE BEACH    CLEAR     79  66  65 N3        30.11R
SPRINGFIELD    CLEAR     82  70  66 N8        30.09S
BRANSON        PTCLDY    84  73  70 E10       30.10R HX  91
JOPLIN         PTCLDY    83  70  64 NE7       30.09R
WEST PLAINS    MOCLDY    81  71  71 N6        30.10R

$$

IAZ060-094-KSZ022-034>040-054-083-096-NEZ052-066-093-300200-
...KANSAS...SOUTHEAST NEBRASKA AND IOWA...

CITY           SKY/WX    TMP DP  RH WIND       PRES   REMARKS
TOPEKA         CLEAR     80  69  69 NE5       30.14S
MANHATTAN      PTCLDY    80  64  58 E7        30.15R
EMPORIA        CLOUDY    79  69  71 NE10      30.13F
CHANUTE        MOCLDY    82  70  66 N8G18     30.11S
WICHITA        CLOUDY    78  72  81 NE8       30.12R
OMAHA          PTCLDY    81  57  43 SW7       30.13S
LINCOLN        PTCLDY    80  54  40 SW5       30.16F
FALLS CITY     PTCLDY    79  68  69 CALM      30.14S
LAMONI         PTCLDY    77  66  68 W5        30.13S
DES MOINES     PTCLDY    79  58  48 W6        30.10R

$$



USA.gov is the U.S. government's official web portal to all federal, state and local government web resources and services.